sat.trackr.live / text

‹ back to catalog

STARLINK-31933

NORAD 59874 · 2024-098S

PAYLOAD ACTIVE UNKNOWN

§ Identity

Operator
Country
US
Launch date
2024-05-24
Launch site
AFETR
Launch vehicle
Mass (kg)
RCS (m²)

Purposes: comms

External: N2YO · Heavens-Above · Gunter

§ Orbital elements

Epoch: 2026-05-24T15:32:30.693408Z

Period
94.27 min
Inclination
43.0027°
Eccentricity
0.0001899
Mean motion
15.27558971 rev/d
Perigee alt
481.8 km
Apogee alt
484.4 km
Semi-major
6,861.2 km
B*
1.2730e-4
RAAN
208.9682°
Arg perigee
281.7698°
Mean anomaly
78.2940°
Rev number
11,346

§ Raw data

STARLINK-319331 59874U 24098S   26144.64757747  .00003240  00000+0  12730-3 0  99942 59874  43.0027 208.9682 0001899 281.7698  78.2940 15.27558971113469

JSON: /api/v1/satellites/59874 · /tle

For live sub-satellite position, see the globe view (requires WebGL).

§ Visibility from observer

Set your observer location to see the next 7 days of passes ≥ 10°. The values pass through the URL so the page stays shareable.

No JS? Fill the form by hand. The geolocation button needs JavaScript.